| time (UTC) | temp F | wind direction | speed knots | gust knots | rain 1hr in | rain 24hr in | rain mn in | humidity % | barometer mb |
| 20260505011535 | 65 | 0 | 0.0 | 4.3 | 0.00 | 0.00 | 0.00 | 39 | 1009.1 |
| 20260505010032 | 65 | 183 | 0.0 | 5.2 | 0.00 | 0.00 | 0.00 | 37 | 1009.1 |
| 20260505004544 | 65 | 155 | 2.6 | 9.6 | 0.00 | 0.00 | 0.00 | 38 | 1009.2 |
| 20260505003032 | 66 | 0 | 0.0 | 6.1 | 0.00 | 0.00 | 0.00 | 37 | 1009.2 |
| 20260505001532 | 66 | 0 | 1.7 | 5.2 | 0.00 | 0.00 | 0.00 | 35 | 1009.2 |
| 20260505000047 | 66 | 181 | 0.9 | 4.3 | 0.00 | 0.00 | 0.00 | 37 | 1009.2 |
| 20260504234531 | 66 | 71 | 1.7 | 7.8 | 0.00 | 0.00 | 0.00 | 36 | 1009.1 |
| 20260504233030 | 67 | 113 | 3.5 | 11.3 | 0.00 | 0.00 | 0.00 | 35 | 1009.0 |
| 20260504231531 | 67 | 88 | 3.5 | 13.0 | 0.00 | 0.00 | 0.00 | 37 | 1008.8 |
| 20260504230030 | 65 | 86 | 6.1 | 13.0 | 0.00 | 0.00 | 0.00 | 35 | 1009.0 |
| 20260504224529 | 66 | 107 | 7.0 | 15.6 | 0.00 | 0.00 | 0.00 | 36 | 1009.1 |
| 20260504223031 | 68 | 32 | 2.6 | 11.3 | 0.00 | 0.00 | 0.00 | 35 | 1009.4 |
| 20260504221535 | 68 | 330 | 1.7 | 9.6 | 0.00 | 0.00 | 0.00 | 35 | 1009.4 |
| 20260504220032 | 66 | 335 | 0.9 | 13.9 | 0.00 | 0.00 | 0.00 | 36 | 1009.7 |
| 20260504214534 | 70 | 61 | 1.7 | 5.2 | 0.00 | 0.00 | 0.00 | 32 | 1009.7 |
| 20260504213029 | 72 | 242 | 0.9 | 10.4 | 0.00 | 0.00 | 0.00 | 27 | 1009.6 |
| 20260504211530 | 73 | 277 | 2.6 | 8.7 | 0.00 | 0.00 | 0.00 | 30 | 1009.4 |
| 20260504210032 | 74 | 173 | 2.6 | 10.4 | 0.00 | 0.00 | 0.00 | 28 | 1009.4 |
| 20260504204534 | 73 | 219 | 2.6 | 7.8 | 0.00 | 0.00 | 0.00 | 27 | 1009.4 |
| 20260504203030 | 73 | 252 | 0.9 | 6.1 | 0.00 | 0.00 | 0.00 | 27 | 1009.6 |
| 20260504201530 | 72 | 216 | 2.6 | 7.0 | 0.00 | 0.00 | 0.00 | 26 | 1009.8 |
| 20260504200032 | 72 | 272 | 1.7 | 9.6 | 0.00 | 0.00 | 0.00 | 30 | 1010.0 |
| 20260504194530 | 72 | 99 | 1.7 | 7.8 | 0.00 | 0.00 | 0.00 | 33 | 1010.1 |
| 20260504193031 | 71 | 240 | 2.6 | 8.7 | 0.00 | 0.00 | 0.00 | 31 | 1010.3 |
| 20260504191531 | 70 | 248 | 3.5 | 7.8 | 0.00 | 0.00 | 0.00 | 30 | 1010.3 |
| 20260504190030 | 70 | 225 | 1.7 | 7.0 | 0.00 | 0.00 | 0.00 | 30 | 1010.8 |
| 20260504184532 | 71 | 167 | 1.7 | 7.8 | 0.00 | 0.00 | 0.00 | 31 | 1011.0 |
| 20260504183029 | 70 | 164 | 1.7 | 6.1 | 0.00 | 0.00 | 0.00 | 32 | 1011.1 |
| 20260504181532 | 70 | 244 | 1.7 | 7.0 | 0.00 | 0.00 | 0.00 | 33 | 1011.3 |
| 20260504180029 | 70 | 165 | 1.7 | 7.0 | 0.00 | 0.00 | 0.00 | 33 | 1011.5 |
| 20260504174530 | 69 | 200 | 0.9 | 6.1 | 0.00 | 0.00 | 0.00 | 35 | 1011.6 |
| 20260504173034 | 69 | 291 | 0.0 | 6.1 | 0.00 | 0.00 | 0.00 | 35 | 1011.8 |
| 20260504171532 | 68 | 214 | 0.9 | 5.2 | 0.00 | 0.00 | 0.00 | 36 | 1011.8 |
| 20260504081531 | 56 | 0 | 0.0 | 5.2 | 0.00 | 0.00 | 0.00 | 37 | 1012.5 |
| 20260504044532 | 55 | 0 | 0.0 | 0.0 | 0.00 | 0.00 | 0.00 | 36 | 1011.9 |
| 20260504043029 | 55 | 0 | 0.0 | 0.0 | 0.00 | 0.00 | 0.00 | 38 | 1012.2 |
| 20260504041529 | 57 | 0 | 0.0 | 0.0 | 0.00 | 0.00 | 0.00 | 38 | 1012.0 |
| 20260504040034 | 58 | 0 | 0.0 | 0.0 | 0.00 | 0.00 | 0.00 | 35 | 1011.8 |
| 20260504034531 | 59 | 0 | 0.0 | 0.9 | 0.00 | 0.00 | 0.00 | 32 | 1011.8 |
| 20260504033032 | 60 | 0 | 0.0 | 0.0 | 0.00 | 0.00 | 0.00 | 34 | 1011.8 |
| 20260504031532 | 61 | 0 | 0.0 | 0.0 | 0.00 | 0.00 | 0.00 | 33 | 1011.7 |
| 20260504030030 | 62 | 0 | 0.0 | 0.0 | 0.00 | 0.00 | 0.00 | 29 | 1011.7 |
| 20260504024528 | 63 | 0 | 0.0 | 0.9 | 0.00 | 0.00 | 0.00 | 28 | 1011.8 |
| 20260504023031 | 65 | 0 | 0.0 | 0.0 | 0.00 | 0.00 | 0.00 | 27 | 1011.7 |
| 20260504021532 | 66 | 0 | 0.0 | 0.0 | 0.00 | 0.00 | 0.00 | 25 | 1011.7 |
| 20260504020030 | 68 | 0 | 0.0 | 1.7 | 0.00 | 0.00 | 0.00 | 23 | 1011.8 |
| 20260504014530 | 69 | 0 | 0.0 | 0.9 | 0.00 | 0.00 | 0.00 | 20 | 1011.9 |
| 20260504013035 | 70 | 0 | 0.0 | 1.7 | 0.00 | 0.00 | 0.00 | 18 | 1012.1 |